Tracking 29892 objects as of 21-Nov-2024
HD Live streaming from Space Station
objects crossing your sky now

STARLINK-2151

Track STARLINK-2151 now!
10-day predictions
STARLINK-2151 is classified as:


NORAD ID: 48556
Int'l Code: 2021-041D
Perigee: 553.5 km
Apogee: 555.1 km
Inclination: 53.1 °
Period: 95.6 minutes
Semi major axis: 6925 km
RCS: Unknown
Launch date: May 15, 2021
Source: United States (US)
Launch site: AIR FORCE EASTERN TEST RANGE (AFETR)
Your satellite tracking list
Your tracking list is empty




NASA's NSSDC Master Catalog

Two Line Element Set (TLE):
1 48556U 21041D   24325.38953111  .00002384  00000-0  17882-3 0  9999
2 48556  53.0534 110.8284 0001189  98.5829 261.5295 15.06411605193578
Source of the keplerian elements: AFSPC